FW8499 Weather Reports


time (UTC)temp
F
wind
direction
speed
knots
gust
knots
rain 1hr
in
rain 24hr
in
rain mn
in
humidity
%
barometer
mb
20260506200905 47 58 0.0 6.1 0.00 0.00 0.00 80 1015.6
20260506195904 47 3 1.7 6.1 0.00 0.00 0.00 79 1015.5
20260506194905 48 35 2.6 10.4 0.00 0.00 0.00 79 1015.4
20260506194405 48 23 2.6 8.7 0.00 0.00 0.00 78 1015.4
20260506193904 48 28 2.6 6.1 0.00 0.00 0.00 79 1015.4
20260506193404 48 43 1.7 5.2 0.00 0.00 0.00 79 1015.4
20260506192904 48 36 2.6 5.2 0.00 0.00 0.00 78 1015.3
20260506191904 48 45 2.6 5.2 0.00 0.00 0.00 78 1015.3
20260506191404 48 34 1.7 7.0 0.00 0.00 0.00 78 1015.3
20260506190905 49 59 1.7 10.4 0.00 0.00 0.00 78 1015.4
20260506185904 49 37 3.5 8.7 0.00 0.00 0.00 77 1015.4
20260506185404 49 22 2.6 8.7 0.00 0.00 0.00 77 1015.3
20260506184904 49 36 1.7 8.7 0.00 0.00 0.00 76 1015.3
20260506184405 49 28 3.5 8.7 0.00 0.00 0.00 76 1015.2
20260506183904 50 6 2.6 7.0 0.00 0.00 0.00 76 1015.2
20260506183404 50 40 2.6 7.0 0.00 0.00 0.00 76 1015.1
20260506182904 50 16 1.7 7.8 0.00 0.00 0.00 76 1015.1
20260506182405 50 5 2.6 7.8 0.00 0.00 0.00 76 1015.1
20260506181905 50 27 2.6 7.8 0.00 0.00 0.00 76 1015.0
20260506181404 50 62 2.6 7.8 0.00 0.00 0.00 75 1014.9
20260506180905 50 23 2.6 7.8 0.00 0.00 0.00 74 1014.9
20260506180404 51 18 2.6 8.7 0.00 0.00 0.00 74 1014.8
20260506175905 51 25 2.6 8.7 0.00 0.00 0.00 74 1014.8
20260506175404 51 29 4.3 8.7 0.00 0.00 0.00 73 1014.7
20260506174905 51 44 2.6 8.7 0.00 0.00 0.00 73 1014.7
20260506174405 52 42 2.6 8.7 0.00 0.00 0.00 73 1014.7
20260506173904 52 26 4.3 10.4 0.00 0.00 0.00 73 1014.7
20260506173404 52 35 2.6 10.4 0.00 0.00 0.00 72 1014.7
20260506172905 52 30 2.6 8.7 0.00 0.00 0.00 73 1014.7
20260506172404 52 18 2.6 8.7 0.00 0.00 0.00 72 1014.6
20260506171905 52 28 3.5 10.4 0.00 0.00 0.00 71 1014.6
20260506171406 53 44 3.5 11.3 0.00 0.00 0.00 70 1014.6
20260506170904 53 39 3.5 11.3 0.00 0.00 0.00 70 1014.6
20260506170405 53 22 2.6 8.7 0.00 0.00 0.00 69 1014.7
20260506165904 54 26 4.3 8.7 0.00 0.00 0.00 69 1014.6
20260506165404 54 19 3.5 10.4 0.00 0.00 0.00 69 1014.6
20260506164904 54 23 4.3 10.4 0.00 0.00 0.00 68 1014.5
20260506164405 54 40 4.3 10.4 0.00 0.00 0.00 68 1014.5
20260506163904 54 14 1.7 10.4 0.00 0.00 0.00 67 1014.4
20260506163404 55 59 2.6 8.7 0.00 0.00 0.00 66 1014.4
20260506162905 55 54 2.6 8.7 0.00 0.00 0.00 66 1014.5
20260506161904 55 76 2.6 7.8 0.00 0.00 0.00 65 1014.4
20260506161404 55 75 3.5 10.4 0.00 0.00 0.00 65 1014.4
20260506160904 55 60 2.6 10.4 0.00 0.00 0.00 66 1014.4
20260506160404 56 16 2.6 7.8 0.00 0.00 0.00 65 1014.4
20260506155904 56 27 2.6 7.8 0.00 0.00 0.00 65 1014.4
20260506155405 56 28 2.6 8.7 0.00 0.00 0.00 65 1014.4
20260506154904 56 21 3.5 8.7 0.00 0.00 0.00 64 1014.4
20260506154404 56 38 2.6 7.8 0.00 0.00 0.00 63 1014.4
20260506153904 56 56 2.6 7.8 0.00 0.00 0.00 63 1014.4
20260506153404 56 17 2.6 7.8 0.00 0.00 0.00 63 1014.4
20260506152905 57 48 3.5 7.8 0.00 0.00 0.00 61 1014.4
20260506152404 57 36 2.6 7.8 0.00 0.00 0.00 61 1014.3
20260506151904 57 57 2.6 7.0 0.00 0.00 0.00 61 1014.3
20260506151404 57 29 1.7 7.0 0.00 0.00 0.00 62 1014.3
20260506150404 57 43 2.6 8.7 0.00 0.00 0.00 61 1014.4
20260506145405 57 17 3.5 10.4 0.00 0.00 0.00 60 1014.3
20260506144904 57 28 1.7 10.4 0.00 0.00 0.00 59 1014.3
20260506144404 57 6 2.6 10.4 0.00 0.00 0.00 57 1014.3
20260506143405 58 25 2.6 10.4 0.00 0.00 0.00 56 1014.3
20260506142905 59 78 2.6 10.4 0.00 0.00 0.00 55 1014.2
20260506141905 59 355 2.6 8.7 0.00 0.00 0.00 54 1014.2
20260506140904 59 9 4.3 10.4 0.00 0.00 0.00 52 1014.3
20260506140405 59 61 2.6 10.4 0.00 0.00 0.00 51 1014.3
20260506135904 59 355 2.6 7.8 0.00 0.00 0.00 52 1014.3
20260506134905 60 16 3.5 10.4 0.00 0.00 0.00 52 1014.3
20260506133904 61 12 4.3 11.3 0.00 0.00 0.00 53 1014.3
20260506132904 61 47 2.6 8.7 0.00 0.00 0.00 53 1014.3
20260506132404 61 73 3.5 7.0 0.00 0.00 0.00 51 1014.2
20260506131905 60 35 1.7 7.0 0.00 0.00 0.00 52 1014.3
20260506130404 61 17 5.2 11.3 0.00 0.00 0.00 49 1014.3
20260506124904 60 34 2.6 10.4 0.00 0.00 0.00 54 1014.3
20260506123904 59 34 2.6 10.4 0.00 0.00 0.00 57 1014.3
20260506123404 59 19 4.3 10.4 0.00 0.00 0.00 56 1014.2
20260506122906 59 35 4.3 10.4 0.00 0.00 0.00 57 1014.3
20260506122404 59 17 2.6 10.4 0.00 0.00 0.00 58 1014.3
20260506121904 59 5 2.6 7.0 0.00 0.00 0.00 58 1014.3
20260506120904 58 41 1.7 8.7 0.00 0.00 0.00 58 1014.3
20260506120404 58 8 2.6 7.8 0.00 0.00 0.00 59 1014.4
20260506115904 57 4 2.6 7.8 0.00 0.00 0.00 60 1014.3
20260506115405 56 40 1.7 10.4 0.00 0.00 0.00 61 1014.4
20260506114405 56 37 1.7 7.0 0.00 0.00 0.00 63 1014.3
20260506113404 56 4 3.5 7.8 0.00 0.00 0.00 62 1014.4
20260506112905 56 5 4.3 10.4 0.00 0.00 0.00 63 1014.5
20260506112404 55 2 2.6 10.4 0.00 0.00 0.00 62 1014.5
20260506111905 55 51 2.6 10.4 0.00 0.00 0.00 62 1014.5
20260506111404 55 42 1.7 7.8 0.00 0.00 0.00 63 1014.6
20260506110904 55 23 2.6 7.0 0.00 0.00 0.00 62 1014.6
20260506110404 55 16 2.6 7.0 0.00 0.00 0.00 63 1014.6
20260506105904 55 22 2.6 7.0 0.00 0.00 0.00 64 1014.6
20260506105404 55 8 1.7 7.8 0.00 0.00 0.00 62 1014.6
20260506104904 56 15 3.5 7.8 0.00 0.00 0.00 62 1014.6
20260506104405 56 36 2.6 7.8 0.00 0.00 0.00 63 1014.7
20260506103904 56 30 1.7 10.4 0.00 0.00 0.00 63 1014.6
20260506103404 55 2 3.5 10.4 0.00 0.00 0.00 63 1014.6
20260506102904 55 45 3.5 8.7 0.00 0.00 0.00 64 1014.6
20260506102404 55 20 4.3 8.7 0.00 0.00 0.00 65 1014.5
20260506101904 55 355 2.6 10.4 0.00 0.00 0.00 65 1014.5
20260506100905 55 16 4.3 13.9 0.00 0.00 0.00 66 1014.5
20260506100404 54 15 3.5 13.9 0.00 0.00 0.00 67 1014.4
20260506095905 54 11 2.6 8.7 0.00 0.00 0.00 67 1014.4
20260506095405 53 34 4.3 8.7 0.00 0.00 0.00 69 1014.4
20260506094904 53 50 2.6 8.7 0.00 0.00 0.00 69 1014.4
20260506094404 52 26 2.6 8.7 0.00 0.00 0.00 72 1014.4
20260506093904 52 29 2.6 8.7 0.00 0.00 0.00 70 1014.4
20260506093404 52 17 2.6 10.4 0.00 0.00 0.00 70 1014.4
20260506091904 52 14 2.6 10.4 0.00 0.00 0.00 70 1014.5
20260506091404 52 13 4.3 10.4 0.00 0.00 0.00 71 1014.5
20260506090904 52 44 3.5 10.4 0.00 0.00 0.00 71 1014.5
20260506090404 51 13 4.3 10.4 0.00 0.00 0.00 70 1014.6
20260506085905 51 46 4.3 10.4 0.00 0.00 0.00 71 1014.6
20260506085405 51 16 4.3 12.2 0.00 0.00 0.00 72 1014.6
20260506084904 51 23 2.6 12.2 0.00 0.00 0.00 71 1014.6
20260506084404 51 10 5.2 12.2 0.00 0.00 0.00 71 1014.7
20260506083904 51 13 5.2 10.4 0.00 0.00 0.00 71 1014.5
20260506083404 51 17 4.3 10.4 0.00 0.00 0.00 71 1014.6
20260506082905 51 15 2.6 10.4 0.00 0.00 0.00 72 1014.7
20260506082405 50 11 2.6 10.4 0.00 0.00 0.00 72 1014.6
20260506081904 50 45 4.3 10.4 0.00 0.00 0.00 72 1014.6
20260506080904 50 355 2.6 10.4 0.00 0.00 0.00 73 1014.5
20260506080405 50 37 4.3 10.4 0.00 0.00 0.00 73 1014.6
20260506073405 48 352 3.5 8.7 0.00 0.00 0.00 77 1014.5
20260506072906 47 12 2.6 8.7 0.00 0.00 0.00 78 1014.5
20260506072405 47 336 0.9 7.8 0.00 0.00 0.00 77 1014.5
20260506071904 47 14 1.7 6.1 0.00 0.00 0.00 78 1014.5
20260506071406 47 6 1.7 7.0 0.00 0.00 0.00 78 1014.5
20260506070905 47 13 2.6 7.0 0.00 0.00 0.00 77 1014.5
20260506070405 47 18 2.6 7.0 0.00 0.00 0.00 78 1014.6
20260506062404 45 14 1.7 7.0 0.00 0.00 0.00 79 1014.3
20260506061905 45 13 2.6 8.7 0.00 0.00 0.00 79 1014.2
20260506061405 45 12 3.5 11.3 0.00 0.00 0.00 79 1014.2
20260506060904 45 5 4.3 11.3 0.00 0.00 0.00 79 1014.1
20260506060404 45 7 5.2 10.4 0.00 0.00 0.00 79 1014.1
20260506051404 44 353 1.7 8.7 0.00 0.00 0.00 83 1013.9
20260506050904 44 6 3.5 8.7 0.00 0.00 0.00 82 1013.9
20260506050405 44 1 2.6 6.1 0.00 0.00 0.00 82 1013.9
20260506044905 44 10 0.9 7.8 0.00 0.00 0.00 82 1013.9
20260506044404 44 9 2.6 7.8 0.00 0.00 0.00 82 1013.8
20260506043904 44 10 1.7 6.1 0.00 0.00 0.00 82 1013.8
20260506043405 44 356 0.9 6.1 0.00 0.00 0.00 82 1013.9
20260506042905 44 20 1.7 6.1 0.00 0.00 0.00 82 1013.9
20260506042404 44 12 0.9 5.2 0.00 0.00 0.00 82 1013.9
20260506041904 44 12 1.7 5.2 0.00 0.00 0.00 82 1013.9
20260506041404 44 3 1.7 6.1 0.00 0.00 0.00 82 1014.0
20260506040905 44 22 2.6 6.1 0.00 0.00 0.00 82 1014.0
20260506040405 44 11 2.6 6.1 0.00 0.00 0.00 82 1013.9
20260506035904 44 23 1.7 6.1 0.00 0.00 0.00 82 1014.0
20260506035404 44 14 1.7 6.1 0.00 0.00 0.00 82 1014.0
20260506034904 45 13 1.7 5.2 0.00 0.00 0.00 82 1014.0
20260506034404 45 4 2.6 7.8 0.00 0.00 0.00 82 1014.0
20260506033404 45 2 0.9 5.2 0.00 0.00 0.00 82 1014.1
20260506032905 45 7 1.7 5.2 0.00 0.00 0.00 82 1014.1
20260506031404 45 16 2.6 6.1 0.00 0.00 0.00 81 1014.2
20260506030905 45 12 1.7 6.1 0.00 0.00 0.00 81 1014.2
20260506030404 45 17 1.7 6.1 0.00 0.00 0.00 81 1014.2
20260506025904 45 10 1.7 6.1 0.00 0.00 0.00 81 1014.1
20260506025405 45 5 1.7 5.2 0.00 0.00 0.00 81 1014.1
20260506024905 45 42 1.7 5.2 0.00 0.00 0.00 81 1014.2
20260506024404 45 10 0.9 7.0 0.00 0.00 0.00 80 1014.2
20260506023904 45 17 2.6 7.0 0.00 0.00 0.00 80 1014.2
20260506023404 46 60 1.7 4.3 0.00 0.00 0.00 80 1014.3
20260506022904 46 8 1.7 4.3 0.00 0.00 0.00 80 1014.4
20260506022404 46 4 1.7 4.3 0.00 0.00 0.00 80 1014.4
20260506021904 46 1 1.7 5.2 0.00 0.00 0.00 79 1014.4
20260506021404 46 26 2.6 5.2 0.00 0.00 0.00 79 1014.4
20260506020904 46 341 1.7 5.2 0.00 0.00 0.00 79 1014.5
20260506020404 46 22 1.7 5.2 0.00 0.00 0.00 79 1014.4
20260506015904 46 354 0.0 4.3 0.00 0.00 0.00 79 1014.5
20260506015404 46 59 0.9 5.2 0.00 0.00 0.00 78 1014.5
20260506014904 46 32 0.9 8.7 0.00 0.00 0.00 78 1014.5
20260506014404 46 17 1.7 8.7 0.00 0.00 0.00 78 1014.5
20260506013404 46 57 0.9 7.0 0.00 0.00 0.00 78 1014.5
20260506012904 46 43 2.6 7.0 0.00 0.00 0.00 78 1014.6
20260506012404 46 46 0.9 7.0 0.00 0.00 0.00 78 1014.6
20260506011905 46 25 2.6 7.0 0.00 0.00 0.00 78 1014.6
20260506011404 47 0 2.6 7.0 0.00 0.00 0.00 77 1014.6
20260506010406 47 32 1.7 5.2 0.00 0.00 0.00 77 1014.6
20260506005904 47 10 0.9 4.3 0.00 0.00 0.00 77 1014.5
20260506005404 47 21 1.7 6.1 0.00 0.00 0.00 77 1014.5
20260506004904 47 51 1.7 6.1 0.00 0.00 0.00 77 1014.6
20260506003904 47 31 0.9 2.6 0.00 0.00 0.00 77 1014.6
20260506002904 47 30 1.7 7.0 0.00 0.00 0.00 77 1014.6
20260506002405 47 37 2.6 7.0 0.00 0.00 0.00 76 1014.6
20260506001905 47 48 1.7 7.0 0.00 0.00 0.00 77 1014.7
20260506001404 47 13 1.7 6.1 0.00 0.00 0.00 77 1014.7
20260506000904 48 22 1.7 6.1 0.00 0.00 0.00 77 1014.7
20260506000404 48 357 1.7 6.1 0.00 0.00 0.00 76 1014.7
20260505235904 48 38 1.7 6.1 0.00 0.00 0.00 76 1014.7
20260505235405 48 26 1.7 6.1 0.00 0.00 0.00 76 1014.8
20260505234904 48 38 0.9 6.1 0.00 0.00 0.00 75 1014.7
20260505234404 48 52 1.7 4.3 0.00 0.00 0.00 75 1014.8
20260505233405 48 66 1.7 5.2 0.00 0.00 0.00 74 1014.8
20260505232905 48 46 2.6 7.0 0.00 0.00 0.00 74 1014.8
20260505232404 48 42 0.9 7.8 0.00 0.00 0.00 74 1014.8
20260505231904 48 42 2.6 7.8 0.00 0.00 0.00 73 1014.8
20260505231404 48 45 1.7 7.8 0.00 0.00 0.00 73 1014.8
20260505230904 48 31 2.6 8.7 0.00 0.00 0.00 73 1014.8
20260505230404 49 29 2.6 8.7 0.00 0.00 0.00 73 1014.9
20260505225403 49 40 3.5 12.2 0.00 0.00 0.00 75 1014.9
20260505224404 49 21 4.3 8.7 0.00 0.00 0.00 78 1014.9
20260505223905 49 37 1.7 6.1 0.00 0.00 0.00 78 1014.9
20260505223404 49 12 1.7 6.1 0.00 0.00 0.00 77 1014.9
20260505222904 49 32 2.6 6.1 0.00 0.00 0.00 77 1014.8
20260505222404 49 22 0.9 5.2 0.00 0.00 0.00 77 1014.7
20260505221904 49 35 2.6 6.1 0.00 0.00 0.00 76 1014.7
20260505221404 49 39 0.9 8.7 0.00 0.00 0.00 76 1014.8
20260505220904 49 22 4.3 8.7 0.00 0.00 0.00 75 1014.7
20260505215404 50 29 2.6 10.4 0.00 0.00 0.00 74 1014.7
20260505214906 50 59 1.7 7.8 0.00 0.00 0.00 73 1014.8
20260505214405 50 46 2.6 7.8 0.00 0.00 0.00 73 1014.8
20260505213904 50 62 3.5 7.8 0.00 0.00 0.00 73 1014.8
20260505213404 50 30 2.6 6.1 0.00 0.00 0.00 72 1014.8
20260505212404 50 40 2.6 6.1 0.00 0.00 0.00 72 1014.8
20260505211904 50 42 1.7 10.4 0.00 0.00 0.00 71 1014.8
20260505211405 51 53 2.6 10.4 0.00 0.00 0.00 70 1014.9
20260505210404 51 51 4.3 10.4 0.00 0.00 0.00 71 1014.9
20260505205904 51 50 4.3 10.4 0.00 0.00 0.00 73 1014.8
20260505205404 51 77 3.5 10.4 0.00 0.00 0.00 74 1014.7
20260505204904 51 37 2.6 10.4 0.00 0.00 0.00 74 1014.6
20260505204404 52 41 4.3 11.3 0.00 0.00 0.00 73 1014.6
20260505203904 52 32 4.3 11.3 0.00 0.00 0.00 74 1014.5
20260505202905 52 26 2.6 7.8 0.00 0.00 0.00 74 1014.4
20260505202404 52 57 4.3 7.8 0.00 0.00 0.00 74 1014.4
20260505201905 52 49 2.6 7.8 0.00 0.00 0.00 74 1014.3
20260505201405 53 54 3.5 8.7 0.00 0.00 0.00 73 1014.3